BEIDOU-3 M13 (43622 NORAD) Tracking and Keplerian Element Data

This shows tracking and keplerian element data for the satellite.

Feedback or suggestion? Click here.




ElementValue
Catalog43622
NameBEIDOU-3 M13
Epoch Orbit4337
Epoch Day34.70512713
Epoch Year2025
RAAN79.167
Inclination56.1848
Eccentricity0.0008098
Argument of Perigee295.9169
Mean Anonmoly64.0672
Mean Motion1.8623096
Decay Rate-2.6E-07
L11 43622U 18072A 25034.70512713 -.00000026 00000+0 00000+0 0 9992
L22 43622 56.1848 79.1670 0008098 295.9169 64.0672 1.86230960 43374



Live tracking and technical data element details for BEIDOU-3 M13 (NORAD 43622). BEIDOU-3 M13 can be tracked NOW for your location showing map with azimuth and elevation plus other details from your city location.







IsCatalogInMostPopularTable: catalog: 43622, numindb: 467
Update: records affected: 1



GetName: 43622 BEIDOU-3 M13

Hit Count: updated at: Fri, 16 May 2025 10:23:11 GMT